Time,TemperatureF,DewpointF,PressureIn,WindDirection,WindDirectionDegrees,WindSpeedMPH,WindSpeedGustMPH,Humidity,HourlyPrecipIn,Conditions,Clouds,dailyrainin,SolarRadiationWatts/m^2,SoftwareType,DateUTC
2013-06-26 00:01:00,63.0,40.0,-100.00,ENE,78,3.0,8.0,42,0.00,,,0.00,13.300000,,2013-06-26 08:01:00,
2013-06-26 00:11:00,63.0,40.0,-100.00,ENE,78,3.0,8.0,42,0.00,,,0.00,13.300000,,2013-06-26 08:11:00,
2013-06-26 00:22:00,63.0,40.0,-100.00,ENE,78,3.0,8.0,42,0.00,,,0.00,13.300000,,2013-06-26 08:22:00,
2013-06-26 00:53:00,64.0,40.0,-100.00,WSW,248,3.0,24.0,42,0.00,,,0.00,1.900000,,2013-06-26 08:53:00,
2013-06-26 01:01:00,64.0,40.0,-100.00,WSW,248,3.0,24.0,42,0.00,,,0.00,1.900000,,2013-06-26 09:01:00,
2013-06-26 01:11:00,64.0,40.0,-100.00,WSW,248,3.0,24.0,42,0.00,,,0.00,1.900000,,2013-06-26 09:11:00,
2013-06-26 01:22:00,64.0,40.0,-100.00,WSW,248,3.0,24.0,42,0.00,,,0.00,1.900000,,2013-06-26 09:22:00,
2013-06-26 01:53:00,64.0,40.0,-100.00,NNE,32,1.0,13.0,41,-99.99,,,0.00,0.800000,,2013-06-26 09:53:00,
2013-06-26 02:01:00,64.0,40.0,-100.00,NNE,32,1.0,13.0,41,-99.99,,,0.00,0.800000,,2013-06-26 10:01:00,
2013-06-26 02:12:00,64.0,40.0,-100.00,NNE,32,1.0,13.0,41,-99.99,,,0.00,0.800000,,2013-06-26 10:12:00,
2013-06-26 02:22:00,64.0,40.0,-100.00,NNE,32,1.0,13.0,41,-99.99,,,0.00,0.800000,,2013-06-26 10:22:00,
2013-06-26 02:53:00,65.0,40.0,-100.00,SSE,162,3.0,33.0,40,0.00,,,0.00,0.800000,,2013-06-26 10:53:00,
2013-06-26 03:02:00,65.0,40.0,-100.00,SSE,162,3.0,33.0,40,0.00,,,0.00,0.800000,,2013-06-26 11:02:00,
2013-06-26 03:11:00,65.0,40.0,-100.00,SSE,162,3.0,33.0,40,0.00,,,0.00,0.800000,,2013-06-26 11:11:00,
2013-06-26 03:22:00,65.0,40.0,-100.00,SSE,162,3.0,33.0,40,0.00,,,0.00,0.800000,,2013-06-26 11:22:00,
2013-06-26 03:52:00,64.0,39.0,-100.00,West,264,6.0,13.0,39,-99.99,,,0.00,0.800000,,2013-06-26 11:52:00,
2013-06-26 04:02:00,64.0,39.0,-100.00,West,264,6.0,13.0,39,-99.99,,,0.00,0.800000,,2013-06-26 12:02:00,
2013-06-26 04:11:00,64.0,39.0,-100.00,West,264,6.0,13.0,39,-99.99,,,0.00,0.800000,,2013-06-26 12:11:00,
2013-06-26 04:22:00,64.0,39.0,-100.00,West,264,6.0,13.0,39,-99.99,,,0.00,0.800000,,2013-06-26 12:22:00,
2013-06-26 04:52:00,64.0,39.0,-100.00,SE,139,2.0,20.0,39,-99.99,,,0.00,1.300000,,2013-06-26 12:52:00,
2013-06-26 05:02:00,64.0,39.0,-100.00,SE,139,2.0,20.0,39,-99.99,,,0.00,1.300000,,2013-06-26 13:02:00,
2013-06-26 05:11:00,64.0,39.0,-100.00,SE,139,2.0,20.0,39,-99.99,,,0.00,1.300000,,2013-06-26 13:11:00,
2013-06-26 05:53:00,65.0,40.0,-100.00,WSW,238,2.0,34.0,39,-99.99,,,0.00,11.500000,,2013-06-26 13:53:00,
2013-06-26 06:02:00,65.0,40.0,-100.00,WSW,238,2.0,34.0,39,-99.99,,,0.00,11.500000,,2013-06-26 14:02:00,
2013-06-26 06:11:00,65.0,40.0,-100.00,WSW,238,2.0,34.0,39,-99.99,,,0.00,11.500000,,2013-06-26 14:11:00,
2013-06-26 06:23:00,65.0,40.0,-100.00,WSW,238,2.0,34.0,39,-99.99,,,0.00,11.500000,,2013-06-26 14:23:00,
2013-06-26 07:11:00,68.0,41.0,-100.00,WSW,247,5.0,13.0,37,-99.99,,,0.00,61.299999,,2013-06-26 15:11:00,
2013-06-26 07:53:00,69.0,41.0,-100.00,SW,227,0.0,13.0,37,-99.99,,,0.00,166.199997,,2013-06-26 15:53:00,
2013-06-26 08:01:00,69.0,41.0,-100.00,SW,227,0.0,13.0,37,-99.99,,,0.00,166.199997,,2013-06-26 16:01:00,
2013-06-26 08:11:00,69.0,41.0,-100.00,SW,227,0.0,13.0,37,-99.99,,,0.00,166.199997,,2013-06-26 16:11:00,
2013-06-26 08:22:00,69.0,41.0,-100.00,SW,227,0.0,13.0,37,-99.99,,,0.00,166.199997,,2013-06-26 16:22:00,
2013-06-26 08:52:00,72.0,43.0,-100.00,ENE,70,1.0,93.0,35,0.00,,,0.00,283.500000,,2013-06-26 16:52:00,
2013-06-26 09:01:00,72.0,43.0,-100.00,ENE,70,1.0,93.0,35,0.00,,,0.00,283.500000,,2013-06-26 17:01:00,
2013-06-26 09:11:00,72.0,43.0,-100.00,ENE,70,1.0,93.0,35,0.00,,,0.00,283.500000,,2013-06-26 17:11:00,
2013-06-26 09:23:00,72.0,43.0,-100.00,ENE,70,1.0,93.0,35,0.00,,,0.00,283.500000,,2013-06-26 17:23:00,
2013-06-26 09:52:00,74.0,47.0,-100.00,NNE,30,1.0,10.0,38,0.00,,,0.00,427.000000,,2013-06-26 17:52:00,
2013-06-26 10:01:00,74.0,47.0,-100.00,NNE,30,1.0,10.0,38,0.00,,,0.00,427.000000,,2013-06-26 18:01:00,
2013-06-26 10:11:00,74.0,47.0,-100.00,NNE,30,1.0,10.0,38,0.00,,,0.00,427.000000,,2013-06-26 18:11:00,
2013-06-26 10:22:00,74.0,47.0,-100.00,NNE,30,1.0,10.0,38,0.00,,,0.00,427.000000,,2013-06-26 18:22:00,
2013-06-26 10:52:00,71.0,41.0,-100.00,SW,218,5.0,24.0,34,0.00,,,-99.99,371.000000,,2013-06-26 18:52:00,
2013-06-26 11:01:00,71.0,41.0,-100.00,SW,218,5.0,24.0,34,0.00,,,-99.99,371.000000,,2013-06-26 19:01:00,
2013-06-26 11:11:00,71.0,41.0,-100.00,SW,218,5.0,24.0,34,0.00,,,-99.99,371.000000,,2013-06-26 19:11:00,
2013-06-26 11:22:00,71.0,41.0,-100.00,SW,218,5.0,24.0,34,0.00,,,-99.99,371.000000,,2013-06-26 19:22:00,
2013-06-26 11:52:00,68.0,44.0,-100.00,SSE,163,11.0,23.0,42,0.00,,,0.00,357.899994,,2013-06-26 19:52:00,
2013-06-26 12:01:00,68.0,44.0,-100.00,SSE,163,11.0,23.0,42,0.00,,,0.00,357.899994,,2013-06-26 20:01:00,
2013-06-26 12:12:00,68.0,44.0,-100.00,SSE,163,11.0,23.0,42,0.00,,,0.00,357.899994,,2013-06-26 20:12:00,
2013-06-26 12:22:00,68.0,44.0,-100.00,SSE,163,11.0,23.0,42,0.00,,,0.00,357.899994,,2013-06-26 20:22:00,
2013-06-26 12:52:00,65.0,46.0,-100.00,SE,145,10.0,22.0,51,0.00,,,0.00,435.700012,,2013-06-26 20:52:00,
2013-06-26 13:02:00,65.0,46.0,-100.00,SE,145,10.0,22.0,51,0.00,,,0.00,435.700012,,2013-06-26 21:02:00,
2013-06-26 13:11:00,65.0,46.0,-100.00,SE,145,10.0,22.0,51,0.00,,,0.00,435.700012,,2013-06-26 21:11:00,
2013-06-26 13:23:00,65.0,46.0,-100.00,SE,145,10.0,22.0,51,0.00,,,0.00,435.700012,,2013-06-26 21:23:00,
2013-06-26 13:52:00,66.0,48.0,-100.00,SE,142,4.0,27.0,52,0.00,,,0.00,337.399994,,2013-06-26 21:52:00,
2013-06-26 14:01:00,66.0,48.0,-100.00,SE,142,4.0,27.0,52,0.00,,,0.00,337.399994,,2013-06-26 22:01:00,
2013-06-26 14:11:00,66.0,48.0,-100.00,SE,142,4.0,27.0,52,0.00,,,0.00,337.399994,,2013-06-26 22:11:00,
2013-06-26 14:21:00,66.0,48.0,-100.00,SE,142,4.0,27.0,52,0.00,,,0.00,337.399994,,2013-06-26 22:21:00,
2013-06-26 14:52:00,62.0,47.0,-100.00,SSW,196,8.0,21.0,57,0.00,,,0.00,238.399994,,2013-06-26 22:52:00,
2013-06-26 15:01:00,62.0,47.0,-100.00,SSW,196,8.0,21.0,57,0.00,,,0.00,238.399994,,2013-06-26 23:01:00,
2013-06-26 15:11:00,62.0,47.0,-100.00,SSW,196,8.0,21.0,57,0.00,,,0.00,238.399994,,2013-06-26 23:11:00,
2013-06-26 15:22:00,62.0,47.0,-100.00,SSW,196,8.0,21.0,57,0.00,,,0.00,238.399994,,2013-06-26 23:22:00,
2013-06-26 15:53:00,62.0,48.0,-100.00,SSW,199,4.0,24.0,60,0.00,,,0.00,232.800003,,2013-06-26 23:53:00,
2013-06-26 16:01:00,62.0,48.0,-100.00,SSW,199,4.0,24.0,60,0.00,,,0.00,232.800003,,2013-06-27 00:01:00,
2013-06-26 16:11:00,62.0,48.0,-100.00,SSW,199,4.0,24.0,60,0.00,,,0.00,232.800003,,2013-06-27 00:11:00,
2013-06-26 16:22:00,62.0,48.0,-100.00,SSW,199,4.0,24.0,60,0.00,,,0.00,232.800003,,2013-06-27 00:22:00,
2013-06-26 16:53:00,58.0,51.0,-100.00,South,171,6.0,14.0,76,0.00,,,0.00,178.100006,,2013-06-27 00:53:00,
2013-06-26 17:01:00,58.0,51.0,-100.00,South,171,6.0,14.0,76,0.00,,,0.00,178.100006,,2013-06-27 01:01:00,
2013-06-26 17:11:00,58.0,51.0,-100.00,South,171,6.0,14.0,76,0.00,,,0.00,178.100006,,2013-06-27 01:11:00,
2013-06-26 17:21:00,58.0,51.0,-100.00,South,171,6.0,14.0,76,0.00,,,0.00,178.100006,,2013-06-27 01:21:00,
2013-06-26 17:53:00,59.0,49.0,-100.00,NE,54,3.0,13.0,69,0.00,,,0.00,331.200012,,2013-06-27 01:53:00,
2013-06-26 18:01:00,59.0,49.0,-100.00,NE,54,3.0,13.0,69,0.00,,,0.00,331.200012,,2013-06-27 02:01:00,
2013-06-26 18:11:00,59.0,49.0,-100.00,NE,54,3.0,13.0,69,0.00,,,0.00,331.200012,,2013-06-27 02:11:00,
2013-06-26 18:22:00,59.0,49.0,-100.00,NE,54,3.0,13.0,69,0.00,,,0.00,331.200012,,2013-06-27 02:22:00,
2013-06-26 18:52:00,59.0,48.0,-100.00,NNE,19,4.0,10.0,67,0.00,,,0.00,194.899994,,2013-06-27 02:52:00,
2013-06-26 19:02:00,59.0,48.0,-100.00,NNE,19,4.0,10.0,67,0.00,,,0.00,194.899994,,2013-06-27 03:02:00,
2013-06-26 19:11:00,59.0,48.0,-100.00,NNE,19,4.0,10.0,67,0.00,,,0.00,194.899994,,2013-06-27 03:11:00,
2013-06-26 19:21:00,59.0,48.0,-100.00,NNE,19,4.0,10.0,67,0.00,,,0.00,194.899994,,2013-06-27 03:21:00,
2013-06-26 19:52:00,62.0,49.0,-100.00,East,79,4.0,10.0,63,0.00,,,0.00,313.899994,,2013-06-27 03:52:00,
2013-06-26 20:01:00,62.0,49.0,-100.00,East,79,4.0,10.0,63,0.00,,,0.00,313.899994,,2013-06-27 04:01:00,
2013-06-26 20:11:00,62.0,49.0,-100.00,East,79,4.0,10.0,63,0.00,,,0.00,313.899994,,2013-06-27 04:11:00,
2013-06-26 20:22:00,62.0,49.0,-100.00,East,79,4.0,10.0,63,0.00,,,0.00,313.899994,,2013-06-27 04:22:00,
2013-06-26 20:52:00,60.0,50.0,-100.00,SW,221,4.0,42.0,68,0.00,,,0.00,158.300003,,2013-06-27 04:52:00,
2013-06-26 21:02:00,60.0,50.0,-100.00,SW,221,4.0,42.0,68,0.00,,,0.00,158.300003,,2013-06-27 05:02:00,
2013-06-26 21:12:00,60.0,50.0,-100.00,SW,221,4.0,42.0,68,0.00,,,0.00,158.300003,,2013-06-27 05:12:00,
2013-06-26 21:21:00,60.0,50.0,-100.00,SW,221,4.0,42.0,68,0.00,,,0.00,158.300003,,2013-06-27 05:21:00,
2013-06-26 21:53:00,57.0,49.0,-100.00,SE,129,3.0,20.0,74,0.00,,,0.00,88.099998,,2013-06-27 05:53:00,
2013-06-26 22:01:00,57.0,49.0,-100.00,SE,129,3.0,20.0,74,0.00,,,0.00,88.099998,,2013-06-27 06:01:00,
2013-06-26 22:12:00,57.0,49.0,-100.00,SE,129,3.0,20.0,74,0.00,,,0.00,88.099998,,2013-06-27 06:12:00,
2013-06-26 22:22:00,57.0,49.0,-100.00,SE,129,3.0,20.0,74,0.00,,,0.00,88.099998,,2013-06-27 06:22:00,
2013-06-26 22:53:00,56.0,48.0,-100.00,NE,50,8.0,49.0,74,0.00,,,0.00,23.500000,,2013-06-27 06:53:00,
2013-06-26 23:02:00,56.0,48.0,-100.00,NE,50,8.0,49.0,74,0.00,,,0.00,23.500000,,2013-06-27 07:02:00,
2013-06-26 23:12:00,56.0,48.0,-100.00,NE,50,8.0,49.0,74,0.00,,,0.00,23.500000,,2013-06-27 07:12:00,
2013-06-26 23:22:00,56.0,48.0,-100.00,NE,50,8.0,49.0,74,0.00,,,0.00,23.500000,,2013-06-27 07:22:00,
2013-06-26 23:52:00,54.0,48.0,-100.00,SSW,198,3.0,17.0,78,0.00,,,0.00,6.400000,,2013-06-27 07:52:00,